Wind_Speed
131 129 128 128 128 128 127 126 125 124 123 123 122 122 122 122 122 122 122 122 121 120 119 117 115 114 113 113 114 115 116 116 116 116 115 114 113 113 113 113 114 114
134 133 132 131 131 130 130 130 129 127 127 126 125 125 124 124 124 125 125 125 125 123 122 120 118 116 115 114 114 115 115 116 116 116 117 116 116 115 115 115 116 116
137 136 136 135 135 134 133 133 133 132 131 130 130 128 128 127 127 127 127 127 127 126 124 122 121 120 119 118 117 117 117 116 116 117 117 117 116 116 116 116 116 116
139 139 138 137 137 137 137 137 137 137 136 135 134 133 132 132 131 131 130 129 128 128 126 125 124 123 122 121 121 120 120 119 118 118 118 119 118 118 117 117 117 117
141 141 141 141 140 140 140 140 140 140 140 139 138 137 136 135 135 133 132 131 130 129 129 128 127 126 125 124 123 123 122 122 121 121 121 122 121 121 120 120 119 119
144 144 144 144 144 144 143 143 142 142 142 142 141 141 140 139 137 136 135 134 133 132 131 131 130 129 128 127 127 126 125 125 124 124 124 124 124 124 124 123 122 122
145 146 146 146 146 147 147 147 146 146 145 144 144 143 143 142 141 139 138 137 136 135 134 134 133 132 131 130 130 129 129 129 128 128 128 127 127 127 127 126 125 125
147 147 147 148 148 148 148 149 149 149 148 148 147 146 145 145 144 143 142 141 140 139 138 137 137 136 135 134 133 133 133 133 133 132 132 131 130 130 130 130 130 129
150 149 149 149 149 149 150 150 150 150 150 150 149 149 148 147 147 146 145 144 143 142 142 141 140 139 139 138 138 137 137 137 137 137 136 135 134 134 133 134 134 133
154 153 151 151 150 150 150 151 152 152 152 151 151 150 150 149 148 147 146 146 145 145 145 145 144 144 144 143 142 142 141 141 140 140 139 139 138 137 137 136 136 137
159 157 155 154 153 152 151 151 152 152 153 153 153 152 151 150 149 148 147 146 145 145 145 145 145 146 146 146 145 145 144 144 143 143 142 142 141 141 140 140 139 139
164 162 160 159 157 156 155 153 152 152 153 153 154 154 154 153 152 151 150 148 147 145 145 144 144 143 144 144 143 143 142 142 142 142 142 142 142 142 142 142 142 142
167 166 165 164 163 161 160 158 157 156 155 154 153 153 153 153 154 154 153 152 151 150 148 147 146 145 144 144 144 143 143 142 142 141 141 141 141 141 141 141 142 143
171 170 170 169 167 166 165 164 162 161 159 158 157 155 154 152 152 152 152 152 152 152 151 150 149 148 147 147 146 146 145 145 144 144 143 143 142 142 142 141 141 141
176 175 173 172 171 170 170 169 167 166 164 163 162 160 159 157 155 153 151 151 150 150 150 150 150 150 150 150 149 148 147 147 146 146 145 145 145 145 145 144 144 144
185 181 178 176 175 174 173 172 171 170 169 168 166 165 164 162 161 159 157 155 154 152 151 150 150 149 150 150 150 150 150 150 150 149 149 149 148 149 148 148 148 148
190 189 186 183 180 178 177 176 175 174 173 172 171 170 168 167 166 164 163 161 160 159 157 155 154 152 152 151 151 151 151 151 150 150 151 151 151 151 151 151 151 151
186 189 190 190 188 186 183 180 179 178 177 176 175 174 173 172 171 169 167 166 165 163 162 160 159 158 157 156 155 155 154 153 153 152 152 151 151 151 151 151 151 151
179 182 185 188 190 191 190 188 186 183 182 180 179 178 177 176 176 174 173 172 171 170 169 167 165 164 163 162 161 160 160 159 159 158 157 156 155 155 154 153 152 152
175 177 179 181 184 187 190 192 192 191 189 187 185 183 181 180 179 178 178 177 176 176 176 175 174 172 171 171 170 170 169 168 167 167 166 164 163 162 161 160 159 158
172 173 175 176 178 180 183 185 188 191 193 193 192 190 188 186 185 183 182 181 180 180 179 179 178 178 177 177 177 177 176 176 175 174 173 172 170 169 167 167 166 165
168 170 171 173 174 176 177 179 181 184 187 189 192 193 193 193 192 191 189 188 186 185 184 183 182 181 180 179 179 178 178 177 177 177 176 176 175 174 173 172 171 170
165 165 167 168 170 171 173 174 176 178 180 182 184 186 189 191 193 194 195 194 194 192 191 190 188 187 186 185 184 183 182 181 180 179 178 177 177 177 176 176 176 175
162 162 162 164 165 166 168 170 172 174 175 177 178 180 182 184 187 189 191 193 194 195 195 195 195 194 193 192 191 190 189 188 187 185 184 183 182 181 180 179 179 179
160 160 160 160 161 162 164 165 167 169 170 171 173 175 177 178 180 182 184 186 187 189 191 192 193 195 195 196 196 196 195 194 194 193 191 190 189 187 186 185 184 183
159 159 159 159 159 159 160 162 163 164 165 167 168 170 171 173 175 176 178 179 181 183 184 186 187 189 190 192 193 194 195 195 196 196 195 195 195 194 193 192 191 190
Wind_Direction
242 242 242 242 241 241 241 242 243 244 245 246 247 248 249 250 251 251 251 251 250 250 249 249 250 250 251 252 253 254 256 257 258 259 259 259 259 260 260 261 262 263
242 242 242 243 243 243 242 242 243 243 244 245 246 247 248 249 250 251 252 252 252 251 251 251 251 251 252 252 253 253 255 256 257 258 258 259 259 259 260 260 261 262
242 242 242 242 243 243 243 243 243 244 244 245 246 247 247 248 249 250 251 252 253 253 253 253 252 252 252 253 253 254 254 255 256 257 258 259 259 259 260 260 261 261
241 242 243 243 243 243 243 244 244 245 245 246 246 247 247 248 249 250 251 252 253 254 254 254 254 254 254 254 254 254 255 256 257 258 259 259 260 260 260 260 261 261
242 242 243 244 244 244 244 244 244 245 246 246 247 247 248 248 249 250 251 252 253 254 254 255 255 255 255 255 255 255 256 256 257 258 259 260 260 261 261 261 262 262
242 243 244 244 245 245 245 245 245 245 246 246 247 248 248 249 249 250 250 251 252 253 253 254 255 255 256 256 256 257 257 258 258 259 260 261 261 261 261 262 262 263
240 242 243 245 245 246 246 247 247 247 247 247 247 247 248 248 249 250 250 251 251 252 252 253 254 255 255 256 257 257 258 259 260 260 261 262 262 263 262 262 263 263
238 240 241 243 245 246 247 248 248 248 248 248 248 248 248 248 249 249 250 250 251 251 252 253 254 254 255 256 257 257 258 259 260 261 261 262 263 263 264 264 264 264
237 238 239 240 242 244 246 247 248 249 249 249 249 249 249 249 249 250 250 250 251 251 251 252 253 254 255 256 257 257 258 259 260 260 261 261 262 262 263 264 264 265
237 238 238 239 240 242 243 245 247 249 250 250 250 250 250 250 250 250 250 251 251 251 251 252 252 253 254 255 256 257 257 258 259 259 260 260 261 261 262 263 263 264
238 238 238 239 239 240 241 243 244 246 248 249 251 251 251 251 251 251 251 251 251 251 252 252 253 254 254 255 256 257 257 258 258 258 259 260 260 261 262 262 263 263
239 239 239 239 240 240 240 241 242 244 245 247 248 250 251 252 252 253 253 253 252 252 252 253 254 254 255 256 256 257 257 258 258 258 259 259 260 261 261 262 262 263
239 239 240 240 240 241 241 241 242 243 244 245 246 247 249 250 251 253 254 254 254 255 254 255 255 255 255 256 256 257 257 258 258 259 259 259 260 260 261 262 262 263
240 240 240 240 241 241 241 242 242 242 243 244 245 246 247 248 249 250 252 253 254 255 255 256 256 256 257 257 257 257 258 258 259 259 260 260 260 261 261 261 262 262
241 241 241 241 241 241 242 242 243 243 243 244 245 245 246 247 247 248 249 251 252 253 254 255 256 256 257 258 258 258 258 259 259 260 260 261 261 262 262 262 263 263
242 242 242 242 242 242 242 243 243 243 244 244 245 245 246 247 247 247 248 249 250 251 252 253 254 255 256 257 258 259 259 259 260 260 260 261 261 262 263 263 263 264
243 243 243 243 243 243 243 243 243 244 244 244 245 245 246 247 247 247 248 248 249 249 250 251 252 253 254 255 256 257 258 259 260 260 261 261 262 262 262 263 263 264
243 244 244 244 244 244 244 244 244 244 244 245 245 245 246 247 247 248 248 248 249 249 250 250 251 251 252 253 254 255 256 257 258 259 260 261 261 262 262 263 263 263
244 244 244 244 244 245 245 245 245 245 245 245 246 246 246 247 247 248 248 249 249 250 250 251 251 252 252 253 254 254 255 256 257 258 259 259 260 261 261 262 262 263
245 245 245 245 245 245 245 246 246 246 247 247 247 247 247 247 247 248 248 249 249 250 250 251 251 252 252 253 254 254 255 256 257 257 258 258 259 259 260 261 261 262
246 246 246 246 246 246 246 246 246 247 247 248 248 248 248 248 248 249 249 249 250 250 251 251 251 252 252 253 254 255 255 256 256 257 257 258 258 259 259 260 260 261
246 246 247 247 246 246 247 247 247 247 247 248 248 249 249 249 250 250 250 250 250 251 251 251 252 252 253 253 254 255 255 255 256 256 257 257 258 258 259 259 260 260
247 247 247 247 247 247 247 248 248 248 248 248 248 249 249 249 250 250 251 251 251 252 252 252 253 253 253 254 254 255 255 256 256 256 257 257 258 258 258 259 259 260
247 247 247 248 248 248 248 248 248 249 249 249 249 249 249 250 250 250 251 251 252 252 253 253 253 254 254 254 255 255 256 256 257 257 257 258 258 258 259 259 259 260
247 247 248 248 248 248 249 249 249 249 249 250 250 250 250 250 250 251 251 251 252 252 253 253 254 254 255 255 255 256 256 256 257 257 258 258 259 259 259 260 260 260
247 247 248 248 248 248 249 249 249 249 250 250 250 250 251 251 251 251 252 252 252 253 253 253 254 254 255 255 255 256 256 257 257 257 258 258 259 259 260 260 261 261
Height
10598 10604 10609 10610 10613 10618 10621 10623 10625 10627 10629 10630 10632 10635 10638 10641 10643 10645 10646 10649 10651 10655 10659 10663 10668 10674 10678 10680 10681 10682 10683 10684 10686 10689 10692 10695 10698 10701 10702 10702 10701 10702
10582 10588 10594 10597 10600 10604 10608 10610 10613 10615 10617 10617 10620 10623 10626 10628 10630 10632 10634 10636 10638 10642 10647 10654 10659 10664 10668 10670 10671 10671 10672 10673 10675 10677 10679 10682 10685 10689 10691 10691 10692 10693
10567 10572 10578 10582 10586 10590 10593 10596 10599 10601 10603 10604 10608 10612 10614 10615 10617 10619 10622 10624 10627 10631 10637 10642 10647 10652 10655 10657 10658 10660 10661 10662 10664 10666 10667 10669 10673 10676 10678 10680 10682 10683
10553 10558 10563 10567 10571 10574 10578 10582 10585 10587 10589 10592 10595 10599 10602 10603 10605 10607 10611 10615 10618 10622 10626 10630 10634 10638 10641 10643 10645 10647 10649 10651 10653 10654 10656 10658 10660 10663 10665 10668 10670 10671
10538 10543 10548 10552 10555 10558 10562 10566 10569 10572 10575 10579 10582 10585 10588 10590 10593 10597 10601 10605 10609 10611 10614 10617 10620 10623 10627 10630 10633 10635 10637 10639 10641 10643 10643 10645 10647 10650 10653 10655 10657 10659
10524 10528 10533 10536 10540 10543 10546 10550 10554 10557 10561 10565 10569 10572 10574 10577 10582 10587 10590 10594 10597 10600 10603 10604 10606 10610 10613 10616 10619 10621 10623 10626 10628 10631 10632 10632 10634 10636 10639 10642 10644 10646
10509 10513 10517 10520 10524 10528 10531 10534 10538 10541 10545 10549 10553 10556 10559 10563 10568 10572 10576 10580 10584 10587 10589 10591 10594 10597 10600 10603 10605 10608 10610 10613 10616 10618 10620 10621 10622 10623 10625 10627 10630 10632
10493 10497 10501 10504 10508 10512 10514 10518 10521 10525 10529 10532 10536 10540 10544 10549 10553 10558 10562 10566 10570 10573 10576 10579 10582 10585 10587 10589 10592 10595 10598 10601 10603 10606 10608 10609 10610 10611 10612 10613 10615 10617
10475 10480 10485 10489 10493 10497 10499 10502 10505 10509 10513 10517 10520 10524 10529 10533 10537 10543 10547 10551 10555 10559 10563 10566 10569 10572 10574 10576 10580 10583 10586 10589 10590 10592 10594 10596 10597 10599 10600 10601 10601 10603
10459 10464 10469 10474 10478 10481 10484 10487 10489 10493 10497 10500 10504 10508 10512 10517 10522 10527 10532 10537 10541 10545 10548 10552 10555 10558 10561 10564 10567 10569 10572 10574 10576 10578 10579 10581 10583 10585 10587 10588 10589 10589
10442 10448 10453 10458 10462 10466 10469 10471 10474 10477 10481 10484 10487 10491 10496 10501 10506 10511 10516 10521 10527 10531 10534 10537 10541 10545 10548 10550 10552 10554 10557 10559 10561 10563 10565 10567 10569 10570 10572 10574 10575 10576
10425 10431 10436 10441 10446 10450 10453 10456 10459 10461 10465 10468 10472 10476 10480 10485 10489 10494 10500 10505 10511 10516 10520 10524 10528 10532 10533 10535 10536 10538 10540 10542 10545 10547 10550 10552 10554 10556 10557 10559 10560 10561
10407 10412 10418 10423 10427 10432 10437 10441 10444 10446 10450 10453 10457 10461 10465 10468 10473 10478 10484 10489 10494 10500 10504 10508 10513 10517 10518 10519 10521 10522 10524 10526 10528 10531 10533 10536 10538 10540 10542 10544 10545 10546
10388 10393 10399 10404 10409 10414 10419 10424 10428 10431 10435 10438 10442 10446 10450 10454 10458 10463 10468 10473 10477 10482 10487 10491 10496 10499 10500 10501 10503 10506 10508 10510 10512 10514 10517 10519 10522 10524 10526 10528 10530 10531
10369 10374 10380 10385 10390 10396 10401 10406 10411 10415 10419 10423 10427 10431 10435 10439 10444 10448 10453 10457 10460 10464 10468 10472 10477 10480 10482 10484 10486 10489 10492 10494 10496 10498 10501 10503 10505 10507 10510 10512 10514 10515
10350 10355 10361 10366 10372 10377 10382 10388 10393 10398 10403 10407 10411 10415 10419 10423 10428 10432 10436 10440 10443 10447 10451 10454 10459 10462 10465 10467 10469 10471 10474 10476 10479 10482 10484 10487 10489 10490 10493 10494 10496 10498
10330 10336 10341 10347 10353 10358 10364 10369 10375 10380 10385 10390 10394 10398 10402 10406 10410 10414 10418 10422 10426 10430 10434 10438 10442 10446 10448 10450 10452 10454 10456 10458 10461 10464 10466 10469 10471 10474 10476 10478 10480 10481
10309 10315 10321 10327 10333 10339 10345 10350 10355 10360 10365 10370 10375 10379 10383 10388 10392 10396 10400 10404 10408 10412 10417 10421 10425 10428 10431 10434 10436 10438 10440 10442 10444 10446 10448 10450 10453 10455 10457 10460 10462 10464
10287 10294 10300 10306 10312 10318 10323 10329 10334 10339 10344 10350 10355 10360 10365 10370 10375 10379 10383 10387 10391 10394 10398 10402 10406 10410 10413 10416 10419 10422 10424 10426 10427 10429 10432 10434 10436 10438 10440 10442 10444 10446
10266 10272 10279 10285 10291 10296 10302 10308 10314 10319 10324 10330 10335 10341 10347 10352 10357 10361 10364 10368 10372 10375 10379 10382 10386 10390 10394 10398 10401 10404 10406 10408 10410 10412 10414 10417 10419 10421 10423 10425 10427 10429
10243 10250 10257 10263 10270 10275 10282 10288 10293 10299 10304 10309 10314 10320 10327 10333 10337 10340 10344 10348 10352 10355 10358 10362 10366 10371 10375 10379 10382 10385 10387 10389 10391 10394 10397 10399 10401 10404 10406 10408 10410 10412
10221 10228 10235 10242 10248 10255 10261 10267 10272 10278 10282 10287 10293 10299 10305 10310 10314 10317 10322 10326 10330 10334 10337 10342 10346 10351 10355 10359 10362 10365 10367 10370 10372 10375 10378 10380 10383 10385 10387 10390 10391 10393
10200 10208 10215 10221 10228 10234 10240 10246 10251 10256 10260 10266 10273 10279 10283 10287 10291 10295 10300 10304 10308 10312 10317 10322 10326 10330 10334 10338 10341 10344 10347 10349 10352 10355 10358 10361 10364 10366 10368 10370 10372 10374
10180 10188 10196 10202 10207 10213 10220 10225 10230 10234 10240 10246 10252 10257 10261 10265 10270 10274 10278 10282 10286 10290 10295 10300 10304 10308 10312 10316 10319 10322 10325 10328 10331 10334 10337 10341 10344 10346 10348 10351 10353 10355
10161 10168 10175 10181 10187 10193 10198 10203 10208 10213 10219 10225 10230 10235 10239 10244 10248 10253 10257 10261 10265 10268 10273 10278 10282 10285 10289 10293 10297 10300 10303 10307 10310 10314 10317 10320 10323 10326 10328 10331 10334 10337
10141 10148 10155 10161 10167 10172 10177 10181 10186 10193 10199 10204 10208 10213 10218 10222 10227 10231 10236 10240 10244 10247 10251 10255 10259 10263 10266 10270 10274 10278 10282 10286 10289 10293 10296 10299 10303 10305 10308 10311 10314 10317